This demonstration page uses our WeatherBlox Daily Observations layout. Learn more.

Hourly Observations for December 2, 2018

Temp ( °F °C ) Dew Point ( °F °C ) Humidity (%) Winds ( mph kmh ) Pressure ( in mb ) Visibility ( mi km ) Precip ( " mm )
12:15 am 00:15 Cloudy with Drizzle 37 3 37 3 100 100 Calm 29.94 1014 1.5 2.414016 0 0
12:35 am 00:35 Cloudy with Rain 37 3 37 3 100 100 Calm 29.94 1014 1.25 2.01168 0.03 0.762
12:55 am 00:55 Cloudy with Drizzle 37 3 37 3 100 100 Calm 29.94 1014 1.25 2.01168 0.04 1.016
1:15 am 01:15 Cloudy with Drizzle 39 4 39 4 100 100 NW 3 6 29.94 1014 1.25 2.01168 0.01 0.254
1:35 am 01:35 Cloudy with Drizzle 39 4 39 4 100 100 Calm 29.91 1013 1.5 2.414016 0.02 0.508
1:55 am 01:55 Cloudy with Light Drizzle 39 4 39 4 100 100 NNW 5 7 29.91 1013 1.5 2.414016 0.03 0.762
2:15 am 02:15 Cloudy with Mist and Fog 37 3 37 3 100 100 NNW 3 6 29.91 1013 2.5 4.02336 0 0
2:35 am 02:35 Cloudy with Light Rain 37 3 37 3 100 100 NNW 3 6 29.88 1012 2 3.218688 0 0
2:55 am 02:55 Cloudy with Rain 39 4 39 4 100 100 Calm 29.88 1012 1.75 2.816352 0.01 0.254
3:15 am 03:15 Cloudy with Light Rain 39 4 39 4 100 100 NW 5 7 29.88 1012 2.5 4.02336 0.01 0.254
3:35 am 03:35 Cloudy with Light Rain 37 3 37 3 100 100 NNW 6 9 29.85 1011 3 4.828032 0.01 0.254
3:55 am 03:55 Cloudy with Light Rain 39 4 39 4 100 100 NNW 5 7 29.85 1011 2.5 4.02336 0.01 0.254
4:15 am 04:15 Cloudy with Rain 39 4 39 4 100 100 NNW 6 9 29.85 1011 2.5 4.02336 0.01 0.254
4:35 am 04:35 Cloudy with Light Drizzle 39 4 39 4 100 100 NNW 5 7 29.85 1011 3 4.828032 0.01 0.254
4:55 am 04:55 Cloudy with Light Drizzle 39 4 39 4 100 100 Calm 29.83 1010 2.5 4.02336 0.01 0.254
5:15 am 05:15 Cloudy with Mist and Fog 41 5 41 5 100 100 Calm 29.8 1009 3 4.828032 0 0
5:35 am 05:35 Cloudy with Mist and Fog 41 5 41 5 100 100 E 3 6 29.8 1009 5 8.04672 0 0
5:55 am 05:55 Cloudy with Mist and Fog 41 5 41 5 100 100 Calm 29.8 1009 5 8.04672 0 0
6:15 am 06:15 Cloudy with Mist and Fog 41 5 41 5 100 100 Calm 29.8 1009 5 8.04672 0 0
6:35 am 06:35 Cloudy with Mist and Fog 41 5 41 5 100 100 Calm 29.8 1009 5 8.04672 0 0
6:55 am 06:55 Cloudy with Mist and Fog 41 5 41 5 100 100 Calm 29.8 1009 5 8.04672 0 0
7:15 am 07:15 Cloudy with Mist and Fog 41 5 41 5 100 100 undefined N/A 29.77 1008 3 4.828032 0 0
7:35 am 07:35 Cloudy with Mist and Fog 41 5 41 5 100 100 Calm 29.77 1008 2.5 4.02336 0 0
7:55 am 07:55 Cloudy with Mist and Fog 41 5 41 5 100 100 Calm 29.77 1008 2.5 4.02336 0 0
8:15 am 08:15 Cloudy with Mist and Fog 41 5 41 5 100 100 Calm 29.8 1009 2 3.218688 0 0
8:35 am 08:35 Cloudy with Mist and Fog 41 5 41 5 100 100 Calm 29.8 1009 2.5 4.02336 0 0
8:55 am 08:55 Cloudy with Mist and Fog 41 5 41 5 100 100 Calm 29.8 1009 2 3.218688 0 0
9:15 am 09:15 Cloudy with Mist and Fog 41 5 41 5 100 100 Calm 29.8 1009 2.5 4.02336 0 0
9:35 am 09:35 Cloudy with Mist and Fog 43 6 43 6 100 100 Calm 29.77 1008 5 8.04672 0 0
9:55 am 09:55 Cloudy 43 6 43 6 100 100 Calm 29.77 1008 7 11.265408 0 0
10:15 am 10:15 Cloudy 43 6 43 6 100 100 Calm 29.8 1009 10 16.09344 0 0
10:35 am 10:35 Cloudy 43 6 43 6 100 100 Calm 29.77 1008 10 16.09344 0 0
10:55 am 10:55 Cloudy 45 7 45 7 100 100 SSW 3 6 29.74 1007 10 16.09344 0 0
11:15 am 11:15 Cloudy 45 7 45 7 100 100 Calm 29.74 1007 10 16.09344 0 0
11:35 am 11:35 Cloudy 45 7 45 7 100 100 S 3 6 29.71 1006 10 16.09344 0 0
11:55 am 11:55 Cloudy 46 8 46 8 100 100 S 3 6 29.71 1006 10 16.09344 0 0
12:15 pm 12:15 Cloudy 46 8 46 8 100 100 SSW 5 7 29.71 1006 7 11.265408 0 0
12:35 pm 12:35 Cloudy 46 8 46 8 100 100 S 6 9 29.68 1005 7 11.265408 0 0
12:55 pm 12:55 Cloudy 46 8 46 8 100 100 SW 3 6 29.68 1005 10 16.09344 0 0
1:15 pm 13:15 Cloudy 46 8 46 8 100 100 SSE 3 6 29.65 1004 10 16.09344 0 0
1:35 pm 13:35 Cloudy 48 9 48 9 100 100 S 6 9 29.65 1004 10 16.09344 0 0
1:55 pm 13:55 Cloudy 48 9 48 9 100 100 S 6 9 29.65 1004 10 16.09344 0 0
2:15 pm 14:15 Cloudy 48 9 48 9 100 100 S 7 11 29.65 1004 10 16.09344 0 0
2:35 pm 14:35 Cloudy 48 9 48 9 100 100 S 5 7 29.65 1004 10 16.09344 0 0
2:55 pm 14:55 Cloudy 48 9 48 9 100 100 SSW 7 11 29.62 1003 10 16.09344 0 0
3:15 pm 15:15 Cloudy 48 9 48 9 100 100 S 7 11 29.62 1003 10 16.09344 0 0
3:35 pm 15:35 Cloudy 48 9 48 9 100 100 SW 7 11 29.62 1003 10 16.09344 0 0
3:55 pm 15:55 Cloudy 50 10 50 10 100 100 WSW 6 9 29.62 1003 10 16.09344 0 0
4:15 pm 16:15 Cloudy 50 10 50 10 100 100 Calm 29.62 1003 10 16.09344 0 0
4:35 pm 16:35 Cloudy 50 10 50 10 100 100 S 5 7 29.62 1003 10 16.09344 0 0
4:55 pm 16:55 Cloudy 48 9 48 9 100 100 S 3 6 29.62 1003 7 11.265408 0 0
5:15 pm 17:15 Cloudy 50 10 50 10 100 100 S 5 7 29.62 1003 10 16.09344 0 0
5:35 pm 17:35 Cloudy 50 10 50 10 100 100 Calm 29.62 1003 10 16.09344 0 0
5:55 pm 17:55 Cloudy 50 10 50 10 100 100 Calm 29.62 1003 10 16.09344 0 0
6:15 pm 18:15 Cloudy 50 10 50 10 100 100 Calm 29.62 1003 10 16.09344 0 0
6:35 pm 18:35 Cloudy 50 10 50 10 100 100 Calm 29.62 1003 10 16.09344 0 0
6:55 pm 18:55 Cloudy 50 10 50 10 100 100 Calm 29.65 1004 10 16.09344 0 0
7:15 pm 19:15 Cloudy 48 9 48 9 100 100 Calm 29.65 1004 7 11.265408 0 0
7:35 pm 19:35 Cloudy 48 9 48 9 100 100 Calm 29.65 1004 7 11.265408 0 0
7:55 pm 19:55 Cloudy 48 9 48 9 100 100 Calm 29.65 1004 7 11.265408 0 0
8:15 pm 20:15 Cloudy 48 9 48 9 100 100 Calm 29.62 1003 7 11.265408 0 0
8:35 pm 20:35 Cloudy 48 9 48 9 100 100 Calm 29.62 1003 7 11.265408 0 0
8:55 pm 20:55 Cloudy 48 9 48 9 100 100 Calm 29.62 1003 7 11.265408 0 0
9:15 pm 21:15 Cloudy 48 9 48 9 100 100 Calm 29.62 1003 7 11.265408 0 0
9:35 pm 21:35 Cloudy 48 9 48 9 100 100 Calm 29.62 1003 7 11.265408 0 0
9:55 pm 21:55 Cloudy with Mist and Fog 48 9 48 9 100 100 Calm 29.62 1003 5 8.04672 0 0
10:15 pm 22:15 Cloudy with Mist and Fog 46 8 46 8 100 100 Calm 29.62 1003 4 6.437376 0 0
10:35 pm 22:35 Cloudy with Mist and Fog 46 8 46 8 100 100 Calm 29.62 1003 5 8.04672 0 0
10:55 pm 22:55 Cloudy with Mist and Fog 46 8 46 8 100 100 Calm 29.62 1003 5 8.04672 0 0
11:15 pm 23:15 Cloudy with Mist and Fog 48 9 48 9 100 100 Calm 29.62 1003 5 8.04672 0 0
11:35 pm 23:35 Cloudy with Mist and Fog 50 10 50 10 100 100 Calm 29.62 1003 1 1.609344 0 0
11:55 pm 23:55 Cloudy with Fog 50 10 50 10 100 100 W 3 6 29.62 1003 0.25 0.402336 0 0

Powered by AerisWeather